Weather in Yelizarovo

Russia / Kostroma Oblast     58°32′15″N   44°48′50″E
temp.,
°C
wind,
m/s
gust,
m/s
humid.,
%
clouds,
%
prec.,
mm/h
press.,
hPa
HPBL,
m
8 march, mon
mon800:00−8ese3896100 1.3 991394
03:00−8ene2497100 2.2 990153
06:00−9ne1297100 0.8 991111
09:00−9nne2495100 1.4 993362
12:00−7nne2392100 0.2 995509
15:00−8n3593100 0.5 997567
18:00−11n389499 0.3 1000421
21:00−12n499398 0.4 1003512
9 march, tue
tue900:00−15n499486 0.1 1006340
03:00−19nnw389788 0.1 1008191
06:00−22n389883 0.0 1010171
09:00−20n379661 0.0 1012267
12:00−16n359273 0.0 1014468
15:00−15n469086 0.1 1015608
18:00−19n3894100 0.1 1017313
21:00−22nne3109597 0.1 1020345
10 march, wed
wed1000:00−27n399625 0.0 1021194
03:00−29n389713 0.0 1023151
06:00−30n36980 0.0 1024114
09:00−25n35960 0.0 1025241
12:00−18nnw25890 0.0 1024486
15:00−15nw358817 0.0 1024623
18:00−19nw2396100 0.0 102434
21:00−22nw239893 0.1 102669
11 march, thu
thu1100:00−24nw239830 0.0 102677
03:00−23wnw369816 0.0 1026104
06:00−20nw3109753 0.0 1026225
09:00−15nw489265 0.0 1027276
12:00−9nw478712 0.0 1027419
15:00−7nw47816 0.0 1026671
18:00−11wnw33900 0.0 102684
21:00−15w36940 0.0 102793
12 march, fri
fri1200:00−16w36950 0.0 102899
03:00−18wsw38970 0.0 1027139
06:00−19wsw38982 0.0 1028164
09:00−15wsw499326 0.0 1028292
12:00−10wsw4986100 0.0 1027531
15:00−8wsw4884100 0.0 1026650
18:00−11sw399152 0.0 1026215
21:00−14sw3119226 0.0 1027309